Dublin, VA

2:01 AM EST on December 07, 2019 (GMT -0500)
New River Valley

Weather History for KPSK - November, 2019

Change the Weather History Date:

Saturday, November 16, 2019

  Actual Average (WUND) Record (WUND)
Temperature  
Mean Temperature 38 °F -  
Max Temperature 48 °F - - (-1)
Min Temperature 28 °F - - (-1)
Degree Days  
Heating Degree Days 27    
Moisture  
Dew Point 27 °F    
Average Humidity 68    
Maximum Humidity 87    
Minimum Humidity 46    
Precipitation  
Precipitation 0.00 in - - ()
Sea Level Pressure  
Sea Level Pressure 30.19 in    
Wind  
Wind Speed 5 mph (ENE)    
Max Wind Speed 15 mph    
Max Gust Speed 18 mph    
Visibility 10 miles    
Events      
Averages and records for this station are not official NWS values.
T = Trace of Precipitation, MM = Missing Value Source: NWS Daily Summary

Daily Weather History Graph

Daily Weather History Graph

Search for Another Location

Airport or City:

Astronomy

Nov. 16, 2019 Rise Set
Actual Time 7:02 AM EST 5:12 PM EST
Civil Twilight 6:34 AM EST 5:39 PM EST
Nautical Twilight 6:03 AM EST 6:11 PM EST
Astronomical Twilight 5:32 AM EST 6:42 PM EST
Moon 8:45 PM EST (11/16) 10:52 AM EST (11/16)
Length of Visible Light 11h 05m
Length of Day
10h 09m
Waning Gibbous, 82% of the Moon is Illuminated
Nov 16
Waning Gibbous
Nov 19
Last Quarter
Nov 26
New
Dec 4
First Quarter
Dec 12
Full

Hourly Weather History & Observations

Time (EST) Temp. Windchill Dew Point Humidity Pressure Visibility Wind Dir Wind Speed Gust Speed Precip Events Conditions
12:15 AM 38.3 °F 33.9 °F 26.6 °F 63% 30.17 in 10.0 mi NNW 5.8 mph - N/A   Clear
12:35 AM 38.3 °F 33.9 °F 26.6 °F 63% 30.17 in 10.0 mi NNW 5.8 mph - N/A   Clear
12:55 AM 38.3 °F - 26.2 °F 62% 30.16 in 10.0 mi Calm Calm - N/A   Clear
1:15 AM 35.8 °F - 26.1 °F 68% 30.16 in 10.0 mi Calm Calm - N/A   Clear
1:35 AM 34.5 °F - 25.9 °F 71% 30.16 in 10.0 mi Calm Calm - N/A   Clear
1:55 AM 35.6 °F - 26.1 °F 68% 30.16 in 10.0 mi Calm Calm - N/A   Clear
2:35 AM 34.5 °F 31.6 °F 25.5 °F 70% 30.15 in 10.0 mi NNW 3.5 mph - N/A   Clear
2:55 AM 35.1 °F - 25.0 °F 67% 30.15 in 10.0 mi Calm Calm - N/A   Clear
3:15 AM 35.4 °F - 25.3 °F 67% 30.15 in 10.0 mi Calm Calm - N/A   Clear
3:35 AM 33.6 °F - 25.5 °F 72% 30.15 in 10.0 mi Calm Calm - N/A   Clear
3:55 AM 32.9 °F 29.8 °F 25.2 °F 73% 30.16 in 10.0 mi ENE 3.5 mph - N/A   Clear
4:15 AM 32.7 °F 29.6 °F 25.3 °F 74% 30.15 in 10.0 mi North 3.5 mph - N/A   Clear
4:35 AM 31.8 °F - 24.8 °F 75% 30.16 in 10.0 mi Calm Calm - N/A   Clear
4:55 AM 31.1 °F - 25.2 °F 79% 30.16 in 10.0 mi Calm Calm - N/A   Clear
5:15 AM 30.7 °F - 24.8 °F 79% 30.17 in 10.0 mi Calm Calm - N/A   Clear
5:35 AM 30.9 °F - 25.5 °F 80% 30.17 in 10.0 mi Calm Calm - N/A   Clear
5:55 AM 31.5 °F - 25.5 °F 79% 30.18 in 10.0 mi Calm Calm - N/A   Clear
6:15 AM 28.8 °F - 24.4 °F 84% 30.19 in 10.0 mi Calm Calm - N/A   Clear
6:35 AM 30.6 °F - 25.2 °F 80% 30.19 in 10.0 mi Calm Calm - N/A   Clear
6:55 AM 28.4 °F - 25.0 °F 87% 30.19 in 10.0 mi Calm Calm - N/A   Clear
7:15 AM 30.0 °F 26.5 °F 26.1 °F 85% 30.20 in 10.0 mi East 3.5 mph - N/A   Clear
7:35 AM 30.0 °F 26.5 °F 25.7 °F 84% 30.21 in 10.0 mi ENE 3.5 mph - N/A   Clear
7:55 AM 31.5 °F 25.8 °F 26.8 °F 83% 30.22 in 10.0 mi ENE 5.8 mph - N/A   Clear
8:15 AM 32.5 °F 28.1 °F 28.0 °F 83% 30.23 in 10.0 mi NE 4.6 mph - N/A   Clear
8:35 AM 34.3 °F 29.2 °F 29.3 °F 82% 30.23 in 10.0 mi ENE 5.8 mph - N/A   Clear
8:55 AM 36.5 °F 32.7 °F 29.1 °F 75% 30.23 in 10.0 mi NE 4.6 mph - N/A   Clear
9:15 AM 38.3 °F 32.5 °F 28.0 °F 67% 30.24 in 10.0 mi ENE 8.1 mph - N/A   Clear
9:35 AM 39.4 °F 32.7 °F 27.9 °F 63% 30.24 in 10.0 mi ENE 10.4 mph - N/A   Clear
9:55 AM 40.3 °F 33.0 °F 27.9 °F 61% 30.24 in 10.0 mi ENE 12.7 mph - N/A   Clear
10:15 AM 41.4 °F 35.7 °F 28.2 °F 60% 30.24 in 10.0 mi NE 9.2 mph 18.4 mph N/A   Clear
10:35 AM 42.3 °F 35.5 °F 27.9 °F 57% 30.23 in 10.0 mi ENE 12.7 mph 17.3 mph N/A   Clear
10:55 AM 42.6 °F 37.2 °F 27.9 °F 56% 30.22 in 10.0 mi ENE 9.2 mph - N/A   Clear
11:35 AM 44.6 °F 38.4 °F 28.0 °F 52% 30.21 in 10.0 mi ENE 12.7 mph - N/A   Clear
11:55 AM 45.5 °F 40.3 °F 28.0 °F 51% 30.19 in 10.0 mi East 10.4 mph - N/A   Clear
12:15 PM 46.0 °F 41.0 °F 28.2 °F 50% 30.19 in 10.0 mi East 10.4 mph 17.3 mph N/A   Clear
12:55 PM 47.3 °F - 28.0 °F 47% 30.18 in 10.0 mi ENE 13.8 mph 17.3 mph N/A   Clear
1:15 PM 48.0 °F - 27.9 °F 46% 30.17 in 10.0 mi ENE 13.8 mph - N/A   Clear
1:35 PM 47.8 °F - 28.9 °F 48% 30.17 in 10.0 mi ENE 12.7 mph 16.1 mph N/A   Clear
1:55 PM 48.0 °F - 28.8 °F 47% 30.17 in 10.0 mi NE 15.0 mph - N/A   Clear
2:15 PM 48.6 °F - 28.6 °F 46% 30.17 in 10.0 mi ENE 10.4 mph 16.1 mph N/A   Clear
2:35 PM 47.5 °F - 28.8 °F 48% 30.17 in 10.0 mi ENE 10.4 mph - N/A   Clear
2:55 PM 47.8 °F - 29.3 °F 49% 30.16 in 10.0 mi ENE 11.5 mph - N/A   Clear
3:15 PM 47.3 °F - 28.4 °F 48% 30.15 in 10.0 mi East 8.1 mph - N/A   Clear
3:35 PM 47.3 °F - 29.1 °F 49% 30.15 in 10.0 mi ENE 10.4 mph - N/A   Clear
3:55 PM 46.6 °F - 29.1 °F 51% 30.16 in 10.0 mi ENE 9.2 mph - N/A   Clear
4:15 PM 45.9 °F 41.2 °F 29.1 °F 52% 30.17 in 10.0 mi East 9.2 mph - N/A   Clear
4:55 PM 43.7 °F 39.1 °F 28.6 °F 55% 30.17 in 10.0 mi East 8.1 mph - N/A   Clear
5:15 PM 41.0 °F 36.4 °F 28.9 °F 62% 30.18 in 10.0 mi East 6.9 mph - N/A   Clear
5:35 PM 39.4 °F 35.2 °F 28.8 °F 66% 30.19 in 10.0 mi East 5.8 mph - N/A   Clear
5:55 PM 39.6 °F 34.7 °F 28.8 °F 65% 30.20 in 10.0 mi East 6.9 mph - N/A   Clear
6:35 PM 37.9 °F 33.5 °F 28.4 °F 69% 30.20 in 10.0 mi East 5.8 mph - N/A   Clear
6:55 PM 35.6 °F 31.7 °F 28.4 °F 75% 30.20 in 10.0 mi ENE 4.6 mph - N/A   Clear
7:15 PM 36.1 °F 30.6 °F 28.2 °F 73% 30.20 in 10.0 mi East 6.9 mph - N/A   Clear
7:35 PM 35.6 °F 30.7 °F 28.2 °F 75% 30.20 in 10.0 mi East 5.8 mph - N/A   Clear
7:55 PM 33.8 °F 29.6 °F 27.7 °F 78% 30.20 in 10.0 mi NE 4.6 mph - N/A   Clear
8:15 PM 33.8 °F 30.8 °F 27.5 °F 78% 30.20 in 10.0 mi NE 3.5 mph - N/A   Clear
8:35 PM 33.8 °F 27.7 °F 27.9 °F 79% 30.21 in 10.0 mi East 6.9 mph - N/A   Clear
9:15 PM 32.5 °F 27.1 °F 27.9 °F 83% 30.22 in 10.0 mi East 5.8 mph - N/A   Clear
9:35 PM 33.3 °F 27.1 °F 27.7 °F 80% 30.22 in 10.0 mi ENE 6.9 mph - N/A   Clear
9:55 PM 32.0 °F 28.7 °F 27.0 °F 82% 30.22 in 10.0 mi NE 3.5 mph - N/A   Clear
10:15 PM 32.2 °F 28.9 °F 26.8 °F 80% 30.21 in 10.0 mi NE 3.5 mph - N/A   Clear
10:35 PM 32.0 °F 27.5 °F 27.0 °F 82% 30.21 in 10.0 mi ENE 4.6 mph - N/A   Clear
10:55 PM 31.3 °F 25.6 °F 26.6 °F 83% 30.21 in 10.0 mi ENE 5.8 mph - N/A   Clear
11:15 PM 30.7 °F 24.9 °F 26.4 °F 84% 30.21 in 10.0 mi ENE 5.8 mph - N/A   Clear
11:35 PM 30.7 °F 24.9 °F 26.2 °F 83% 30.22 in 10.0 mi East 5.8 mph - N/A   Clear
11:55 PM 30.7 °F 24.9 °F 26.1 °F 83% 30.21 in 10.0 mi ENE 5.8 mph - N/A   Clear